Theta_e
353 360 365 364 364 365 362 362 363 363 363 364 364 365 366 366 366 367 368 367 366 365 366 365 366 364 362 361 361 362 363 365 366 364 365 363 358 359 359 361 362 350 359
356 357 366 366 364 364 363 363 363 363 363 364 363 365 364 365 365 367 367 366 366 365 363 362 362 363 361 361 360 361 361 364 366 366 365 363 360 358 360 362 365 358 357
352 357 360 367 368 367 367 364 364 363 363 364 364 363 363 363 363 364 364 364 364 365 366 363 362 361 360 361 361 364 366 368 368 365 367 349 354 359 356 357 361 362 361
354 353 355 367 369 367 368 366 366 363 363 365 364 363 361 362 361 362 362 362 362 362 362 364 364 362 363 359 359 360 361 362 361 359 351 349 351 357 357 357 359 361 362
353 354 360 369 369 368 368 368 367 366 364 363 361 361 358 356 356 361 361 361 361 361 361 361 361 362 362 363 364 362 360 359 355 358 356 357 356 358 358 356 354 357 360
353 358 365 368 368 369 368 368 368 366 364 363 361 358 357 355 354 355 357 360 359 360 360 360 359 358 359 360 360 359 358 359 360 352 352 353 357 360 360 358 355 354 356
354 359 362 367 366 366 368 367 367 364 364 360 357 355 356 355 354 354 354 355 359 359 359 359 359 357 356 355 354 355 356 353 354 354 353 347 355 359 358 358 359 355 354
354 356 360 366 367 366 366 365 364 362 358 355 351 352 356 353 349 350 355 353 355 356 358 357 358 355 355 354 353 353 355 356 353 353 351 348 353 354 353 357 359 358 356
354 355 358 359 364 364 365 362 362 361 358 355 352 354 352 350 347 349 355 354 354 355 356 355 357 356 356 355 354 354 353 358 356 351 349 351 357 354 354 355 359 358 358
352 353 357 359 359 361 361 362 362 361 359 355 354 354 352 351 349 350 352 354 354 355 356 356 356 356 356 356 356 355 354 357 349 353 353 352 356 354 356 357 358 359 359
352 353 354 355 356 356 357 362 364 362 360 357 355 355 351 346 348 347 349 353 354 355 356 356 356 358 358 358 357 356 357 352 352 351 351 356 354 354 356 357 357 359 359
349 350 352 353 354 354 354 363 365 365 359 361 356 357 352 348 343 345 348 352 353 355 358 357 356 359 361 356 356 356 351 352 355 351 353 359 357 357 358 356 358 357 357
350 350 351 357 356 352 357 362 364 364 361 360 358 355 359 359 348 347 346 346 347 353 351 354 353 352 355 357 354 352 350 350 351 350 354 358 355 357 359 359 357 357 356
349 351 352 355 359 360 355 356 358 362 363 353 360 356 357 356 357 351 347 346 347 350 354 352 352 357 356 360 353 355 350 351 351 352 357 360 355 356 359 358 357 355 355
348 351 353 356 360 359 367 358 356 359 355 356 361 359 356 353 358 357 352 352 351 355 353 349 350 353 358 354 351 353 351 354 351 351 354 362 359 358 358 357 357 355 355
350 351 353 355 360 360 361 366 362 357 358 356 355 364 361 361 358 360 363 356 358 355 353 353 351 356 354 351 349 351 353 354 354 357 354 358 362 359 357 356 359 359 358
350 352 353 356 359 361 364 361 362 363 355 358 359 356 362 362 360 357 360 365 356 356 353 353 358 355 350 349 349 355 354 357 354 353 353 356 356 361 358 357 361 361 360
351 352 356 355 356 359 362 361 364 361 356 359 357 356 355 361 361 362 360 354 355 360 351 352 351 347 347 348 349 353 355 357 354 356 353 352 355 355 358 360 360 360 361
354 355 356 357 355 359 367 369 361 361 359 352 353 353 358 361 362 361 356 365 362 359 357 353 349 351 349 349 352 352 351 353 355 350 353 353 357 353 356 360 362 361 360
355 358 360 359 360 356 358 371 364 368 361 352 350 350 352 358 359 357 362 366 356 360 358 358 359 356 352 351 348 347 350 353 353 354 349 353 352 351 349 358 356 353 361
355 358 361 361 355 339 347 355 363 357 360 353 354 356 353 358 358 355 350 360 360 363 355 354 353 358 354 356 356 349 352 351 351 352 353 346 349 346 349 354 352 351 354
354 358 362 362 358 352 353 360 360 358 356 356 361 357 359 359 353 352 348 351 360 363 361 358 360 357 360 359 352 351 339 344 349 350 347 344 343 346 346 348 350 352 354
354 356 360 365 366 362 363 362 367 366 363 356 356 356 358 355 353 353 352 351 354 356 353 359 360 351 354 355 355 352 346 342 339 345 346 343 346 344 348 349 349 350 355
351 354 359 364 367 366 369 365 369 357 353 359 355 360 358 360 358 360 355 354 355 354 351 359 359 357 360 356 350 349 352 349 338 336 346 343 347 344 345 345 347 349 354
351 349 356 364 367 369 368 370 367 363 355 356 355 359 362 361 361 360 361 362 365 354 353 352 355 362 360 352 348 348 354 347 350 341 333 342 345 347 346 346 347 348 354
352 350 352 361 365 367 366 367 368 364 362 355 356 356 355 355 357 361 360 361 357 357 363 362 363 362 359 357 352 350 348 344 343 341 340 336 338 343 346 347 346 348 349
Wind_Speed
15 15 12 16 17 17 17 16 17 16 15 15 15 16 16 16 16 16 15 15 16 15 14 14 15 15 15 15 16 16 16 16 17 18 17 18 15 13 10 9 14 15 14
17 15 14 15 17 17 16 16 16 16 16 15 15 15 15 15 15 15 15 15 15 15 15 15 14 15 14 14 15 16 15 14 14 17 18 16 14 13 12 15 15 14 14
21 18 17 15 15 18 16 16 17 16 15 15 14 14 14 14 12 13 14 14 14 13 14 14 14 13 13 12 12 12 14 12 12 15 16 13 13 13 12 14 13 13 12
19 18 18 14 15 19 17 17 16 16 15 14 13 13 12 11 11 11 11 12 12 12 11 11 12 12 12 11 11 10 9 9 6 7 7 11 13 11 11 12 12 11 13
18 16 18 15 16 19 18 17 18 17 16 15 13 13 15 13 10 7 9 9 10 10 10 10 9 9 10 9 10 8 8 7 2 4 7 5 10 11 10 10 11 10 7
14 17 16 16 16 16 17 18 17 19 18 17 17 15 15 14 11 12 3 6 7 8 8 9 8 7 6 6 7 7 5 6 9 8 4 7 10 12 9 5 9 9 10
15 18 17 15 16 15 16 17 17 17 18 21 21 20 14 12 11 7 8 2 5 5 5 6 6 4 4 4 3 3 5 7 4 2 3 6 12 9 7 6 7 7 8
15 19 17 15 15 16 16 17 17 18 17 16 17 17 17 12 6 7 9 7 3 1 3 3 3 3 2 2 2 2 4 6 9 7 7 6 14 12 8 7 8 8 7
19 18 16 15 14 16 15 16 17 18 17 15 16 17 16 16 4 10 10 8 6 4 2 2 2 2 2 2 3 3 4 7 9 3 7 6 12 12 9 9 10 9 8
16 13 16 15 15 14 14 16 17 17 16 14 15 17 16 15 13 16 11 11 6 5 4 3 3 3 3 3 4 5 7 9 10 1 6 9 11 7 10 11 11 10 9
15 15 16 16 15 14 14 14 15 17 17 16 15 16 16 6 8 14 14 11 7 7 6 4 4 5 6 7 7 8 12 5 8 6 7 11 9 5 7 12 13 10 9
13 14 14 15 14 11 10 14 12 11 10 10 10 14 10 12 9 12 16 12 11 9 10 9 9 10 10 7 7 12 8 10 8 9 6 13 9 6 8 11 13 10 10
13 11 14 11 12 12 3 9 6 5 5 5 13 6 9 8 10 10 7 10 10 14 9 13 12 9 3 5 7 5 9 7 3 4 9 14 10 6 10 11 11 12 10
15 13 14 11 8 8 9 7 9 8 6 2 7 13 7 5 8 9 8 11 9 8 9 8 4 2 5 4 12 4 7 4 6 3 6 13 11 6 10 10 10 10 10
15 13 11 13 11 9 4 3 7 7 7 6 5 8 9 10 7 6 9 8 5 7 6 6 6 5 2 9 9 5 5 2 8 1 4 14 13 9 9 9 9 9 9
15 15 13 12 12 10 8 7 5 6 11 9 5 8 12 9 8 8 6 8 7 6 7 8 7 4 8 8 6 6 5 4 8 4 7 10 15 13 10 9 9 9 10
14 15 13 14 14 11 9 11 7 2 7 8 6 7 10 10 3 8 7 6 9 8 10 6 4 5 8 8 7 1 6 4 7 6 7 7 10 15 14 11 10 10 10
14 13 13 12 12 14 10 8 3 4 5 6 5 4 7 8 9 7 4 5 7 4 7 8 7 8 8 8 4 4 3 2 9 5 8 6 9 9 12 13 11 9 9
13 14 14 13 11 6 9 6 8 5 8 4 3 4 6 8 7 3 6 5 7 5 5 5 7 6 7 5 5 7 7 5 5 6 5 6 3 5 8 15 13 10 10
15 14 14 11 5 4 5 5 6 4 5 5 5 7 6 6 5 6 6 7 5 7 5 7 5 4 7 3 3 5 5 6 4 4 11 11 10 12 7 13 10 10 15
14 15 13 14 9 3 3 8 6 7 7 8 7 8 9 8 5 1 4 9 9 5 9 7 9 6 6 5 2 7 4 6 10 9 10 5 6 7 6 10 6 7 10
15 15 15 14 14 9 8 10 6 6 10 9 8 8 10 10 7 5 6 8 10 4 9 5 6 3 5 1 3 2 6 4 9 13 8 6 6 7 10 7 7 5 4
14 14 16 15 16 15 15 8 6 4 6 6 5 8 12 7 12 12 11 11 9 6 5 6 5 6 6 4 8 3 3 2 3 9 8 5 5 5 6 8 10 8 7
15 12 14 15 15 14 15 12 9 8 7 7 6 5 5 11 11 15 13 11 11 4 5 5 8 7 7 5 5 7 9 3 1 4 4 8 8 7 6 6 9 8 9
14 12 14 14 14 13 13 12 9 9 7 6 8 9 7 8 10 11 9 11 10 8 9 7 8 9 6 8 5 5 7 7 6 5 4 4 6 9 8 8 7 9 12
16 13 12 13 12 12 10 12 11 9 9 6 7 6 8 9 11 12 13 9 10 9 11 9 11 10 8 6 6 7 7 6 4 6 6 2 6 8 5 8 7 5 7
Wind_Direction
144 123 132 130 130 126 128 129 125 124 117 112 111 101 99 98 98 98 96 98 103 102 101 95 99 104 106 109 109 109 111 109 107 105 102 100 100 97 86 98 122 94 92
131 144 138 130 127 128 130 131 128 128 118 115 106 100 103 103 104 102 102 98 101 102 99 103 100 103 109 115 119 124 126 126 123 119 113 104 102 98 85 73 78 97 97
134 137 143 138 137 140 132 137 134 127 122 112 106 102 95 97 97 97 101 104 101 96 109 106 108 111 116 120 123 121 120 125 133 140 154 113 105 105 101 100 104 99 101
132 150 141 137 135 138 140 138 137 137 127 114 107 100 90 88 95 96 97 99 101 103 103 99 115 112 120 125 125 120 120 123 163 190 174 123 108 114 113 115 119 112 110
141 139 122 138 137 144 142 144 144 145 132 116 97 95 91 56 33 82 94 96 103 108 107 103 102 105 120 121 122 122 132 135 181 280 75 88 110 120 123 129 134 122 126
126 124 131 141 142 147 148 148 149 152 142 134 115 97 88 88 53 349 55 110 108 107 109 109 108 111 116 122 132 137 144 164 211 128 130 95 104 126 140 137 105 119 117
127 130 138 142 146 150 154 151 151 149 144 132 126 114 90 86 78 350 321 322 119 114 112 107 107 109 110 111 130 168 189 215 255 244 145 144 128 129 146 150 140 136 132
152 144 136 141 147 151 159 159 157 158 151 146 145 120 109 88 93 283 321 304 295 154 116 106 123 132 123 129 153 193 227 238 216 194 204 210 131 145 161 178 173 161 149
167 144 150 158 154 155 160 163 167 170 170 160 145 142 137 131 189 240 291 302 280 270 228 163 159 179 162 200 214 227 240 241 280 98 256 67 144 150 175 196 191 181 167
137 144 158 157 166 171 165 174 177 177 170 165 156 158 155 147 201 219 261 259 265 266 258 223 221 237 224 223 225 227 228 230 242 283 53 154 188 158 192 204 203 188 184
151 166 162 161 169 181 174 176 186 181 180 172 170 171 169 161 210 222 237 259 285 267 261 258 253 249 238 231 227 222 228 233 221 238 160 146 132 150 187 200 198 194 196
167 172 163 168 171 179 174 161 188 186 187 181 194 174 198 182 211 229 238 234 253 257 255 248 244 242 232 216 202 216 237 172 224 192 186 133 132 171 181 181 194 198 205
176 184 161 161 172 148 205 163 179 195 183 211 184 173 195 190 202 217 228 232 234 221 241 211 222 234 131 292 234 251 204 237 153 147 166 133 137 174 189 189 200 204 204
182 195 157 171 166 211 158 176 187 183 189 176 228 190 198 190 216 202 211 219 221 253 212 248 254 259 210 231 272 184 330 105 262 194 141 126 149 169 173 182 191 200 198
179 188 171 168 171 206 154 200 183 186 143 219 232 205 196 204 206 213 223 233 233 269 278 236 248 282 273 267 227 231 237 7 261 261 96 137 134 162 165 181 186 192 196
180 181 185 183 173 205 207 205 237 177 178 167 223 216 211 207 206 193 218 217 220 222 268 239 216 258 229 257 229 243 242 229 256 321 136 141 149 162 173 186 187 192 200
181 180 192 189 170 195 177 207 230 272 126 154 153 276 219 231 176 216 207 202 220 214 228 243 225 213 274 239 242 94 248 256 241 199 250 151 152 170 173 183 192 195 198
188 182 193 189 180 182 203 196 192 236 90 118 124 200 269 226 212 201 228 192 236 268 191 222 199 229 231 234 262 255 197 223 233 227 227 245 168 180 180 179 185 192 200
197 175 188 184 185 158 187 181 230 210 127 154 161 223 235 261 223 235 238 194 233 246 266 274 222 243 206 224 190 232 241 202 230 243 292 197 225 219 181 173 172 187 203
177 178 193 168 130 98 10 215 210 248 151 179 214 211 217 239 243 238 241 267 175 247 211 247 266 287 290 288 309 327 308 206 298 211 221 189 197 206 182 154 167 192 201
184 185 187 162 171 184 164 231 211 209 190 200 213 197 199 227 203 273 319 274 226 179 242 206 223 205 241 234 8 276 213 224 228 212 239 206 156 207 231 171 207 207 186
190 183 182 189 189 208 196 224 202 206 191 200 197 191 216 216 129 206 236 270 262 229 237 228 214 199 243 161 233 193 263 12 219 232 194 217 216 185 194 206 202 247 191
187 190 192 192 187 196 209 218 235 255 131 214 177 209 207 161 178 211 206 227 238 233 226 230 240 215 225 266 219 199 271 206 293 203 184 199 177 245 228 177 184 196 206
176 189 192 196 190 195 205 215 195 206 203 208 225 197 190 215 198 211 204 202 219 205 235 216 240 220 255 213 227 227 243 121 302 8 307 198 188 240 208 221 188 202 188
182 173 187 187 195 207 199 235 200 220 206 180 206 191 205 232 213 224 207 208 210 208 215 221 243 227 192 246 211 252 246 230 215 170 345 304 256 193 216 214 219 201 184
183 176 161 174 187 196 194 203 237 211 243 210 203 188 210 210 195 198 215 205 215 202 239 211 232 230 230 265 225 228 241 243 215 232 170 243 262 291 237 202 224 240 203